Flag for Montenegro Weather past 2 weeks in Podgorica, Montenegro

Now
52 °F

Clear.


Feels Like: 52 °F
Forecast: 52 / 84 °F
Wind: 1 mph from North

Location: Podgorica Titograd

Current Time: May 30, 2015 at 5:15:33 AM

Latest Report: May 30, 2015 at 5:00 AM


Visibility: 10 mi

Pressure: 29.95 "Hg

Humidity: 77%

Dew point: 45 °F

Location of PodgoricaLocation

Historic Weather in Podgorica — Graph

°F

Podgorica temperature yesterday

Maximum temperature yesterday: 73 °F (at 2:30 PM)
Minimum temperature yesterday: 52 °F (at 4:30 AM)
Average temperature yesterday: 65 °F

Past Weeks' High & Low Weather Summary

 TemperatureHumidityPressure
High88 °F (May 17, 2:00 PM)100% (May 18, 9:30 PM)30.07 "Hg (May 18, 9:30 PM)
Low52 °F (May 29, 4:30 AM)18% (May 16, 11:30 AM)29.71 "Hg (May 19, 3:30 PM)
Average68 °F58%29.89 "Hg
* Reported May 15 4:00 AM — May 30 4:00 AM, Podgorica, Weather by CustomWeather, © 2015

Note: Actual official high and low records may vary slightly from our data, if they occured in-between our weather recording intervals... More about our weather records

Advertising

Podgorica weather history for previous 24 hours

 ConditionsComfort  
Time TempWeatherWind HumidityBarometerVisibility
4:00 AM
Sat, May 30
54 °FClear.1 mph72%29.95 "Hg10 mi
3:30 AM55 °FClear.2 mph72%29.95 "Hg10 mi
3:00 AM57 °FClear.1 mph67%29.95 "Hg10 mi
2:30 AM57 °FClear.3 mph67%29.95 "Hg10 mi
2:00 AM59 °FPassing clouds.3 mph63%29.98 "HgN/A
1:30 AM57 °FClear.2 mph72%29.98 "Hg10 mi
1:00 AM59 °FPassing clouds.3 mph63%29.98 "HgN/A
12:30 AM59 °FClear.2 mph68%29.98 "Hg10 mi
12:00 AM59 °FClear.2 mph68%29.95 "Hg10 mi
11:30 PM
Fri, May 29
61 °FClear.3 mph63%29.95 "Hg10 mi
10:30 PM63 °FClear.6 mph64%29.95 "Hg10 mi
10:00 PM63 °FClear.2 mph68%29.95 "Hg10 mi
9:30 PM64 °FClear.3 mph64%29.95 "Hg10 mi
9:00 PM66 °FSunny.2 mph56%29.92 "Hg10 mi
8:30 PM66 °FSunny.3 mph56%29.92 "Hg10 mi
8:00 PM68 °FSunny.2 mph53%29.92 "Hg10 mi
7:30 PM70 °FSunny.3 mph50%29.92 "Hg10 mi
7:00 PM72 °FPassing clouds.6 mph44%29.92 "HgN/A
6:30 PM73 °FPassing clouds.6 mph41%29.92 "HgN/A
6:00 PM73 °FPassing clouds.5 mph38%29.89 "HgN/A
5:30 PM73 °FPassing clouds.5 mph36%29.89 "HgN/A
5:00 PM73 °FPassing clouds.6 mph31%29.92 "HgN/A
4:30 PM73 °FPassing clouds.5 mph31%29.92 "HgN/A
4:00 PM73 °FPassing clouds.7 mph31%29.92 "HgN/A
3:30 PM73 °FPassing clouds.6 mph31%29.92 "HgN/A
3:00 PM73 °FPassing clouds.9 mph31%29.92 "HgN/A
2:30 PM73 °FPassing clouds.8 mph31%29.92 "HgN/A
2:00 PM72 °FPassing clouds.8 mph33%29.92 "HgN/A
1:30 PM72 °FPassing clouds.7 mph33%29.95 "HgN/A
1:00 PM72 °FPassing clouds.10 mph33%29.95 "HgN/A
12:30 PM72 °FPassing clouds.8 mph33%29.95 "HgN/A
12:00 PM70 °FPassing clouds.5 mph35%29.95 "HgN/A
11:30 AM70 °FPassing clouds.5 mph35%29.98 "HgN/A
11:00 AM70 °FPassing clouds.6 mph35%29.98 "HgN/A
10:30 AM68 °FPassing clouds.3 mph28%29.98 "HgN/A
10:00 AM68 °FPassing clouds.3 mph30%29.98 "HgN/A
9:30 AM66 °FPassing clouds.5 mph32%29.98 "HgN/A
9:00 AM66 °FPassing clouds.6 mph32%29.98 "HgN/A
8:30 AM64 °FPassing clouds.8 mph37%29.98 "HgN/A
8:00 AM63 °FPassing clouds.9 mph42%29.98 "HgN/A
7:30 AM61 °FPassing clouds.9 mph42%29.98 "HgN/A
7:00 AM59 °FPassing clouds.7 mph45%29.98 "HgN/A
6:30 AM57 °FSunny.9 mph48%29.98 "Hg10 mi
6:00 AM55 °FClear.9 mph51%29.98 "Hg10 mi
5:30 AM54 °FClear.8 mph51%29.95 "Hg10 mi
5:00 AM54 °FClear.7 mph51%29.95 "Hg10 mi
Weather by CustomWeather, © 2015

See weather overviewHow to use our weather pages